FW7297 Weather Reports


time (UTC)temp
C
wind
direction
speed
KPH
gust
KPH
rain 1hr
cm
rain 24hr
cm
rain mn
cm
humidity
%
barometer
mb
20260906114204 21 86 0.0 1.6 0.00 0.79 0.00 97 1012.3
20260906113704 21 72 0.0 3.2 0.00 0.79 0.00 97 1012.4
20260906112704 21 223 0.0 1.6 0.00 0.79 0.00 97 1012.2
20260906112204 21 12 0.0 1.6 0.00 0.79 0.00 97 1012.2
20260906111704 21 310 0.0 1.6 0.00 0.79 0.00 97 1012.1
20260906111204 21 10 0.0 1.6 0.00 0.79 0.00 97 1012.1
20260906110704 21 311 0.0 1.6 0.00 0.79 0.00 97 1012.1
20260906110204 21 358 0.0 1.6 0.00 0.79 0.00 97 1012.1
20260906105704 21 184 0.0 1.6 0.00 0.79 0.00 97 1011.9
20260906105204 21 50 0.0 1.6 0.00 0.79 0.00 97 1012.0
20260906104704 21 332 0.0 3.2 0.00 0.79 0.00 97 1011.7
20260906104204 21 8 0.0 3.2 0.00 0.79 0.00 97 1011.7
20260906103704 21 188 0.0 3.2 0.00 0.79 0.00 97 1011.9
20260906103204 21 348 0.0 3.2 0.00 0.79 0.00 97 1011.8
20260906102204 21 158 0.0 1.6 0.00 0.79 0.00 97 1011.7
20260906101704 21 283 0.0 1.6 0.00 0.79 0.00 97 1011.9
20260906101204 21 66 0.0 3.2 0.00 0.79 0.00 97 1011.7
20260906100703 21 53 0.0 3.2 0.00 0.79 0.00 97 1011.7
20260906100204 21 24 0.0 1.6 0.00 0.79 0.00 97 1011.8
20260906095704 21 54 0.0 1.6 0.00 0.79 0.00 97 1011.6
20260906095204 21 90 0.0 3.2 0.00 0.79 0.00 96 1011.8
20260906094704 21 135 0.0 3.2 0.00 0.79 0.00 97 1011.9
20260906094204 21 303 0.0 3.2 0.00 0.79 0.00 96 1012.1
20260906093704 21 24 0.0 3.2 0.00 0.79 0.00 96 1011.8
20260906093204 21 77 0.0 3.2 0.00 0.79 0.00 96 1012.1
20260906092704 21 306 1.6 3.2 0.00 0.79 0.00 96 1011.8
20260906092204 21 298 0.0 3.2 0.00 0.79 0.00 96 1011.8
20260906091704 21 132 1.6 3.2 0.00 0.79 0.00 96 1011.7
20260906091204 21 72 1.6 3.2 0.00 0.79 0.00 96 1011.6
20260906090704 21 21 1.6 3.2 0.00 0.79 0.00 96 1011.6
20260906090204 21 333 1.6 3.2 0.00 0.79 0.00 96 1011.4
20260906085204 21 338 0.0 3.2 0.00 0.79 0.00 95 1011.4
20260906084706 22 245 0.0 3.2 0.00 0.79 0.00 95 1011.3
20260906084204 22 109 1.6 3.2 0.00 0.79 0.00 95 1011.3
20260906083704 22 305 1.6 3.2 0.00 0.79 0.00 95 1011.2
20260906083204 22 314 0.0 1.6 0.00 0.79 0.00 95 1011.2
20260906082704 22 94 0.0 3.2 0.00 0.79 0.00 95 1011.4
20260906082204 22 49 0.0 3.2 0.00 0.79 0.00 95 1011.5
20260906081704 22 226 1.6 3.2 0.00 0.79 0.00 95 1011.5
20260906081204 22 137 0.0 3.2 0.00 0.79 0.00 95 1011.6
20260906080704 22 36 0.0 3.2 0.00 0.79 0.00 94 1011.4
20260906080205 22 177 0.0 4.8 0.00 0.79 0.00 94 1011.5
20260906075704 22 132 1.6 4.8 0.00 0.79 0.00 94 1011.4
20260906075204 22 88 3.2 4.8 0.00 0.79 0.00 94 1011.3
20260906074204 22 317 1.6 8.0 0.00 0.79 0.00 93 1011.3
20260906073204 23 280 3.2 8.0 0.00 0.79 0.00 91 1011.5
20260906072703 23 215 3.2 9.7 0.00 0.79 0.00 92 1011.3
20260906072204 22 223 4.8 9.7 0.00 0.79 0.00 94 1011.5
20260906071704 22 269 1.6 4.8 0.00 0.79 0.00 95 1011.5
20260906070704 22 269 1.6 4.8 0.00 0.79 0.00 95 1011.6
20260906070204 22 181 1.6 4.8 0.00 0.79 0.00 94 1011.6
20260906065703 22 199 3.2 4.8 0.00 0.79 0.00 94 1011.6
20260906065204 22 240 1.6 4.8 0.00 0.79 0.00 94 1011.3
20260906064704 22 224 3.2 8.0 0.00 0.79 0.00 94 1011.3
20260906064203 22 259 3.2 9.7 0.00 0.79 0.00 94 1011.5
20260906063704 22 253 3.2 9.7 0.00 0.79 0.00 94 1011.4
20260906063204 22 219 4.8 9.7 0.00 0.79 0.00 94 1011.3
20260906062703 22 229 3.2 8.0 0.00 0.79 0.00 94 1011.8
20260906062203 22 262 4.8 9.7 0.00 0.79 0.00 94 1012.0
20260906060704 22 242 4.8 8.0 0.00 0.79 0.00 95 1012.0
20260906060204 22 302 1.6 4.8 0.00 0.79 0.00 95 1011.7
20260906055704 22 244 1.6 4.8 0.00 0.79 0.38 95 1011.9
20260906055204 22 240 3.2 4.8 0.00 0.79 0.38 95 1012.0
20260906054204 22 279 1.6 4.8 0.00 0.79 0.38 95 1012.4
20260906053704 22 47 1.6 4.8 0.00 0.79 0.38 94 1012.3
20260906053204 22 267 1.6 4.8 0.00 0.79 0.38 94 1012.4
20260906052703 22 239 1.6 8.0 0.03 0.79 0.38 94 1012.4
20260906051703 22 216 4.8 11.3 0.33 0.79 0.38 95 1013.1
20260906051204 22 222 6.4 11.3 0.36 0.79 0.38 95 1013.1
20260906050703 22 227 6.4 9.7 0.38 0.79 0.38 95 1013.2
20260906050204 22 226 1.6 8.0 0.38 0.79 0.38 95 1013.3
20260906045704 22 222 1.6 8.0 0.38 0.38 0.38 94 1013.3
20260906045204 22 235 4.8 8.0 0.38 0.38 0.38 94 1013.0
20260906044704 22 225 1.6 4.8 0.38 0.38 0.38 94 1012.8
20260906044204 23 84 3.2 4.8 0.38 0.38 0.38 94 1012.9
20260906043704 23 248 3.2 4.8 0.38 0.38 0.38 93 1012.7
20260906043203 23 350 3.2 4.8 0.38 0.38 0.38 91 1012.9
20260906042703 23 188 3.2 4.8 0.36 0.38 0.38 90 1013.1
20260906041704 25 283 1.6 8.0 0.05 0.08 0.08 84 1013.0
20260906041204 25 66 1.6 8.0 0.03 0.05 0.05 80 1012.9
20260906040704 25 279 3.2 8.0 0.00 0.00 0.00 79 1013.0
20260906040204 25 226 1.6 8.0 0.00 0.00 0.00 80 1012.9
20260906035704 25 249 0.0 8.0 0.00 0.00 0.00 81 1012.7
20260906035204 24 260 3.2 8.0 0.00 0.00 0.00 82 1012.7
20260906033704 23 42 0.0 3.2 0.00 0.00 0.00 86 1012.1
20260906033204 23 121 0.0 3.2 0.00 0.00 0.00 86 1012.3
20260906032705 23 108 0.0 3.2 0.00 0.00 0.00 87 1012.5
20260906032206 23 97 1.6 3.2 0.00 0.00 0.00 86 1012.1
20260906031704 23 91 1.6 1.6 0.00 0.00 0.00 86 1011.9
20260906031205 23 210 0.0 1.6 0.00 0.00 0.00 86 1011.7
20260906030205 23 157 0.0 3.2 0.00 0.00 0.00 85 1012.0
20260906025705 23 111 1.6 3.2 0.00 0.00 0.00 85 1012.0
20260906025205 23 338 0.0 3.2 0.00 0.00 0.00 85 1012.0
20260906024705 23 135 0.0 3.2 0.00 0.00 0.00 85 1012.0
20260906023705 23 44 0.0 3.2 0.00 0.00 0.00 85 1011.6
20260906023205 23 263 1.6 3.2 0.00 0.00 0.00 86 1011.7
20260906022705 23 167 1.6 3.2 0.00 0.00 0.00 85 1011.5
20260906022205 23 215 3.2 3.2 0.00 0.00 0.00 85 1011.6
20260906021705 23 196 1.6 3.2 0.00 0.00 0.00 84 1011.4
20260906020204 23 245 3.2 4.8 0.00 0.00 0.00 84 1011.3
20260906015704 23 215 1.6 3.2 0.00 0.00 0.00 83 1011.0
20260906015204 24 214 3.2 3.2 0.00 0.00 0.00 81 1011.0
20260906014705 24 132 0.0 3.2 0.00 0.00 0.00 79 1011.0
20260906014206 24 128 0.0 3.2 0.00 0.00 0.00 78 1011.0
20260906013705 24 329 0.0 0.0 0.00 0.00 0.00 78 1010.8
20260906013205 25 309 0.0 0.0 0.00 0.00 0.00 77 1010.8
20260906012704 25 44 0.0 3.2 0.00 0.00 0.00 76 1011.0
20260906012205 25 44 0.0 3.2 0.00 0.00 0.00 76 1010.9
20260906011707 25 308 1.6 3.2 0.00 0.00 0.00 75 1011.1
20260906011205 25 98 1.6 3.2 0.00 0.00 0.00 75 1011.0
20260906010705 25 284 0.0 1.6 0.00 0.00 0.00 74 1011.0
20260906010205 25 276 0.0 3.2 0.00 0.00 0.00 74 1011.1
20260906005205 25 168 1.6 3.2 0.00 0.00 0.00 73 1011.1
20260906004705 25 98 1.6 4.8 0.00 0.00 0.00 73 1011.1
20260906004205 25 204 3.2 4.8 0.00 0.00 0.00 72 1011.2
20260906003705 25 236 1.6 8.0 0.00 0.00 0.00 73 1011.2
20260906002705 27 224 4.8 8.0 0.00 0.00 0.00 69 1011.6
20260906002205 27 201 3.2 8.0 0.00 0.00 0.00 65 1012.0
20260906001705 28 250 4.8 8.0 0.00 0.00 0.00 63 1011.9
20260906001205 30 305 4.8 8.0 0.00 0.00 0.00 63 1011.6
20260906000705 30 269 1.6 3.2 0.00 0.00 0.00 62 1011.6
20260905235204 31 74 1.6 3.2 0.00 0.00 0.00 57 1010.8
20260905234705 31 174 1.6 3.2 0.00 0.00 0.00 56 1010.7
20260905234205 31 177 1.6 3.2 0.00 0.00 0.00 55 1010.6
20260905233704 31 143 1.6 8.0 0.00 0.00 0.00 55 1010.7
20260905233206 32 88 1.6 8.0 0.00 0.00 0.00 54 1010.5
20260905232706 32 112 3.2 8.0 0.00 0.00 0.00 53 1010.5
20260905232205 32 122 1.6 8.0 0.00 0.00 0.00 52 1010.4
20260905231705 32 197 1.6 8.0 0.00 0.00 0.00 52 1010.2
20260905231204 32 152 1.6 8.0 0.00 0.00 0.00 52 1010.1
20260905230704 33 112 3.2 8.0 0.00 0.00 0.00 51 1010.2
20260905230205 33 100 1.6 4.8 0.00 0.00 0.00 50 1010.2
20260905225704 33 129 1.6 4.8 0.00 0.00 0.00 49 1010.3
20260905225205 33 135 3.2 8.0 0.00 0.00 0.00 48 1010.2
20260905224706 33 139 3.2 8.0 0.00 0.00 0.00 47 1010.3
20260905224205 33 142 3.2 8.0 0.00 0.00 0.00 47 1010.5
20260905223705 34 155 4.8 8.0 0.00 0.00 0.00 45 1010.5
20260905223204 34 139 1.6 3.2 0.00 0.00 0.00 46 1010.3
20260905222705 34 112 1.6 4.8 0.00 0.00 0.00 45 1010.5
20260905222204 34 83 1.6 4.8 0.00 0.00 0.00 45 1010.5
20260905221704 34 99 1.6 9.7 0.00 0.00 0.00 46 1010.4
20260905221205 33 141 1.6 9.7 0.00 0.00 0.00 46 1010.5
20260905220205 33 190 1.6 9.7 0.00 0.00 0.00 48 1010.5
20260905215706 34 121 4.8 9.7 0.00 0.00 0.00 48 1010.5
20260905212704 34 82 3.2 8.0 0.00 0.00 0.00 47 1010.7
20260905212205 35 345 3.2 8.0 0.00 0.00 0.00 45 1010.8
20260905211704 34 225 0.0 8.0 0.00 0.00 0.00 43 1010.9
20260905211204 34 62 4.8 8.0 0.00 0.00 0.00 45 1010.8
20260905210705 33 127 1.6 12.9 0.00 0.00 0.00 46 1010.8
20260905210205 34 109 4.8 12.9 0.00 0.00 0.00 45 1011.0
20260905205704 35 92 6.4 11.3 0.00 0.00 0.00 43 1010.6
20260905205205 33 116 6.4 11.3 0.00 0.00 0.00 47 1010.8
20260905204704 32 121 4.8 9.7 0.00 0.00 0.00 47 1010.6
20260905204204 32 142 0.0 9.7 0.00 0.00 0.00 51 1011.1
20260905203705 32 64 3.2 9.7 0.00 0.00 0.00 51 1011.2
20260905203205 33 113 3.2 9.7 0.00 0.00 0.00 51 1011.0
20260905202705 33 119 3.2 9.7 0.00 0.00 0.00 50 1011.0
20260905201705 33 90 4.8 14.5 0.00 0.00 0.00 53 1011.3
20260905201204 34 86 8.0 14.5 0.00 0.00 0.00 51 1011.4
20260905200704 34 111 4.8 14.5 0.00 0.00 0.00 52 1011.2
20260905200205 34 77 6.4 12.9 0.00 0.00 0.00 52 1011.2
20260905195705 34 87 4.8 16.1 0.00 0.00 0.00 50 1011.4
20260905195204 35 108 8.0 16.1 0.00 0.00 0.00 48 1011.2
20260905194705 35 113 3.2 12.9 0.00 0.00 0.00 45 1011.4
20260905194204 37 175 3.2 12.9 0.00 0.00 0.00 41 1011.3
20260905193705 37 104 4.8 12.9 0.00 0.00 0.00 41 1011.3
20260905193205 37 185 4.8 8.0 0.00 0.00 0.00 39 1011.3
20260905192704 37 223 3.2 9.7 0.00 0.00 0.00 40 1011.2
20260905192205 37 202 3.2 9.7 0.00 0.00 0.00 40 1011.3
20260905191704 37 170 4.8 11.3 0.00 0.00 0.00 38 1011.3
20260905191204 38 232 4.8 11.3 0.00 0.00 0.00 38 1011.9
20260905190704 37 131 4.8 9.7 0.00 0.00 0.00 40 1011.8
20260905190204 37 221 4.8 9.7 0.00 0.00 0.00 41 1011.8
20260905185704 36 85 3.2 9.7 0.00 0.00 0.00 42 1011.7
20260905185205 35 161 3.2 9.7 0.00 0.00 0.00 42 1011.6
20260905184704 36 199 8.0 9.7 0.00 0.00 0.00 42 1011.8
20260905184204 36 188 3.2 8.0 0.00 0.00 0.00 42 1011.9
20260905183704 36 264 3.2 11.3 0.00 0.00 0.00 43 1011.9
20260905183204 35 99 1.6 14.5 0.00 0.00 0.00 44 1012.1
20260905182705 35 332 3.2 14.5 0.00 0.00 0.00 45 1012.1
20260905182204 35 134 1.6 8.0 0.00 0.00 0.00 45 1012.3
20260905181205 36 141 4.8 11.3 0.00 0.00 0.00 43 1012.1
20260905180704 37 100 8.0 11.3 0.00 0.00 0.00 42 1012.1
20260905180204 36 63 3.2 8.0 0.00 0.00 0.00 44 1012.4
20260905175704 35 113 3.2 4.8 0.00 0.00 0.00 47 1012.4
20260905175204 35 347 1.6 9.7 0.00 0.00 0.00 45 1012.5
20260905174705 36 118 3.2 9.7 0.00 0.00 0.00 44 1012.7
20260905174204 35 132 6.4 14.5 0.00 0.00 0.00 46 1012.7
20260905173704 35 225 1.6 14.5 0.00 0.00 0.00 47 1012.4
20260905173204 36 115 6.4 11.3 0.00 0.00 0.00 46 1012.6
20260905172704 36 112 4.8 11.3 0.00 0.00 0.00 46 1012.6
20260905172204 35 148 3.2 9.7 0.00 0.00 0.00 47 1012.8
20260905171205 35 130 4.8 12.9 0.00 0.00 0.00 49 1013.0
20260905170704 35 126 8.0 14.5 0.00 0.00 0.00 50 1013.1
20260905170204 34 138 8.0 14.5 0.00 0.00 0.00 50 1013.1
20260905165704 34 144 9.7 14.5 0.00 0.00 0.00 49 1013.2
20260905165204 35 108 4.8 11.3 0.00 0.00 0.00 49 1013.3
20260905164705 34 115 3.2 9.7 0.00 0.00 0.00 50 1013.3
20260905164204 33 290 3.2 9.7 0.00 0.00 0.00 50 1013.4
20260905163704 34 245 3.2 11.3 0.00 0.00 0.00 50 1013.4
20260905163204 33 115 6.4 11.3 0.00 0.00 0.00 52 1013.4
20260905162704 33 101 6.4 12.9 0.00 0.00 0.00 52 1013.6
20260905161704 32 158 1.6 11.3 0.00 0.00 0.00 54 1013.5
20260905161204 32 124 4.8 11.3 0.00 0.00 0.00 54 1013.8
20260905160705 32 212 3.2 8.0 0.00 0.00 0.00 54 1013.8
20260905155704 31 142 3.2 8.0 0.00 0.00 0.00 59 1013.7
20260905155205 31 316 3.2 4.8 0.00 0.00 0.00 56 1014.0
20260905154704 31 148 1.6 4.8 0.00 0.00 0.00 61 1014.2
20260905153204 29 166 1.6 4.8 0.00 0.00 0.00 67 1014.1
20260905152704 28 20 1.6 4.8 0.00 0.00 0.00 70 1014.2
20260905152204 28 29 3.2 4.8 0.00 0.00 0.00 73 1014.1
20260905151706 28 160 3.2 4.8 0.00 0.00 0.00 74 1014.5
20260905151204 28 172 1.6 4.8 0.00 0.00 0.00 74 1014.2
20260905150706 28 176 3.2 4.8 0.00 0.00 0.00 75 1014.3
20260905150204 28 95 3.2 4.8 0.00 0.00 0.00 75 1014.4
20260905145704 27 249 1.6 4.8 0.00 0.00 0.00 76 1014.3
20260905145204 27 60 1.6 8.0 0.00 0.00 0.00 78 1014.2
20260905144705 27 131 3.2 8.0 0.00 0.00 0.00 78 1014.5
20260905144204 27 139 1.6 4.8 0.00 0.00 0.00 77 1014.3
20260905143704 27 109 0.0 3.2 0.00 0.00 0.00 77 1014.4
20260905142704 26 151 0.0 3.2 0.00 0.00 0.00 79 1014.5
20260905142204 26 240 1.6 3.2 0.00 0.00 0.00 79 1014.5
20260905141704 27 128 1.6 3.2 0.00 0.00 0.00 80 1014.5
20260905141204 26 82 0.0 3.2 0.00 0.00 0.00 80 1014.6
20260905140704 26 172 0.0 3.2 0.00 0.00 0.00 81 1014.3
20260905140204 26 161 1.6 3.2 0.00 0.00 0.00 81 1014.4
20260905135704 26 147 3.2 3.2 0.00 0.00 0.00 81 1014.4
20260905135204 26 206 1.6 3.2 0.00 0.00 0.00 81 1014.4
20260905134204 26 189 1.6 3.2 0.00 0.00 0.00 81 1014.5
20260905133705 25 124 1.6 3.2 0.00 0.00 0.00 82 1014.3
20260905133205 25 129 1.6 3.2 0.00 0.00 0.00 83 1014.4
20260905132704 25 113 1.6 3.2 0.00 0.00 0.00 84 1014.6
20260905132204 25 163 1.6 3.2 0.00 0.00 0.00 85 1014.7
20260905131704 25 71 0.0 3.2 0.00 0.00 0.00 85 1014.8
20260905131204 25 149 0.0 3.2 0.00 0.00 0.00 85 1014.8
20260905130704 24 178 1.6 3.2 0.00 0.00 0.00 86 1014.7
20260905130204 24 165 1.6 3.2 0.00 0.00 0.00 87 1014.8
20260905125704 24 208 0.0 1.6 0.00 0.00 0.00 87 1014.6
20260905125206 23 124 0.0 1.6 0.00 0.00 0.00 88 1014.8
20260905123704 23 206 1.6 3.2 0.00 0.00 0.00 90 1014.7
20260905122204 22 212 0.0 3.2 0.00 0.00 0.00 95 1014.6
20260905121204 21 144 0.0 3.2 0.00 0.00 0.00 96 1014.7
20260905120204 21 130 0.0 1.6 0.00 0.00 0.00 96 1014.7
20260905115704 21 356 0.0 1.6 0.00 0.00 0.00 96 1014.6
20260905115206 21 281 0.0 1.6 0.00 0.00 0.00 96 1014.6
20260905114705 21 342 0.0 3.2 0.00 0.00 0.00 96 1014.5